Retour au catalogue

STARLINK-2564

ActifCommunicationsVLEO
NORAD 48284·PAYLOAD·🇺🇸 United States

Lancé Apr 29, 2021 depuis Cape Canaveral Space Force Station

Loading…

Prochains Passages (prochaines 24 heures)

TLE

FraisSource: CelesTrak SupGP

Époque: Sep 15, 2026, 00:36 UTC

1 48284C 21036J   26258.02548611  .00030289  00000+0  97349-3 0  2582
2 48284  53.1582 274.7542 0001201  90.4485  55.7777 15.31704000    17

Suivez STARLINK-2564 en temps réel avec AllMySat

Download on the App Store